星链-4092 (STARLINK-4092 )

导读 | 豆包AI

STARLINK-4092是美国太空探索技术公司于2022年6月17日发射的星链低轨通信卫星,属于星链星座网络的组网卫星。星链计划旨在构建全球卫星互联网,该卫星承担着为全球偏远地区等提供宽带互联网接入服务的任务,助力星链完成全球覆盖的组网布局。

Basic Information
目录编号:
52838
目录名称:
STARLINK-4092
国际标识:
2022-062J
轨道中心:
EARTH
卫星名称:
星链-4092
卫星全名:
星链-4092 (STARLINK-4092 )
卫星状态:
在轨 (已飞行1413 天)
发射日期:
2022-06-17 UTC
国别 :
美国 (US)
星等 :
--
Orbit Information
数据来源 国际轨道数据 AOE轨道数据
星历时间 2026-04-30T18:01:00+0800
11小时前
查看轨道信息
2026-04-27T05:00:00+0800
4天前
查看轨道信息
半长轴 6917.9km 6917.887km
偏心率 0.0001093 0.0001348
轨道倾角 53.217° 53.213°
近地点辐角 82.689° 87.133°
升交点赤经 161.898° 177.802°
平近点角 277.423° 101.052°
近地点 539.006km 538.817km
远地点 540.52km 540.683km
周期 95.438分钟 95.438分钟
每日圈数 15.088338 15.08838
Detailed Information
固有亮度:
5
最大亮度:
2.5
卫星平台:
Starlink v1.5
覆盖范围:
全球
运营商:
太空探索技术公司
运营商所在国:
美国
制造商(研发单位):
太空探索技术公司
制造商所在国:
美国
使用方式:
暂无
Satellite Introduction
星链(Starlink)计划是由太空探索技术公司(SpaceX)提出的一个巨型低轨卫星互联网星座项目,计划在2019年至2024年间在太空搭建由约1.2万颗卫星组成的“星链”网络,其中1584颗将部署在地球上空550千米处的近地轨道,并从2020年开始工作。该卫星仍在工作。
2D Orbit Map
3D Orbit Map
Orbit Altitude Analysis Chart
Orbit Inclination Analysis Chart
Orbit Comprehensive Analysis Chart
View Comprehensive Chart